Weather History for Port Huron, MI

Change the Weather History Date:

Tuesday, May 14, 2013

  Actual Average (KMTC) Record (KMTC)
Temperature  
Mean Temperature 45 °F -  
Max Temperature 57 °F 65 °F 89 °F (1962)
Min Temperature 33 °F 45 °F 37 °F (1965)
Degree Days  
Heating Degree Days 20    
Moisture  
Dew Point 38 °F    
Average Humidity 73    
Maximum Humidity 100    
Minimum Humidity 55    
Precipitation  
Precipitation 0.00 in - - ()
Sea Level Pressure  
Sea Level Pressure 29.96 in    
Wind  
Wind Speed 6 mph (SE)    
Max Wind Speed 16 mph    
Max Gust Speed 23 mph    
Visibility 10 miles    
Events Rain    
Averages and records for this station are not official NWS values.
T = Trace of Precipitation, MM = Missing Value Source: NWS Daily Summary

Daily Weather History Graph

Daily Weather History Graph

Search for Another Location

Airport:

Trip Planner

Search our weather history database for the weather conditions in past years. The results will help you decide how hot, cold, wet, or windy it might be!

Date:

Astronomy

May. 14, 2013 Rise Set
Actual Time 6:07 AM EDT 8:45 PM EDT
Civil Twilight 5:35 AM EDT 9:18 PM EDT
Nautical Twilight 4:54 AM EDT 9:59 PM EDT
Astronomical Twilight 4:08 AM EDT 10:45 PM EDT
Moon 9:46 AM EDT (5/14) No Moon Set
Length of Visible Light 15h 42m
Length of Day
14h 37m
Waxing Crescent, 19% of the Moon is Illuminated
May 14
Waxing Crescent
May 18
First Quarter
May 25
Full
May 31
Last Quarter
Jun 8
New

Hourly Weather History & Observations

Time (EDT) Temp. Windchill Dew Point Humidity Pressure Visibility Wind Dir Wind Speed Gust Speed Precip Events Conditions
12:17 AM 33.8 °F - 33.8 °F 100% 30.12 in 10.0 mi Calm Calm - N/A   Clear
12:37 AM 33.8 °F - 33.8 °F 100% 30.12 in 10.0 mi Calm Calm - N/A   Clear
12:57 AM 35.6 °F - 33.8 °F 93% 30.12 in 10.0 mi Calm Calm - N/A   Clear
1:17 AM 35.6 °F - 32.0 °F 87% 30.11 in 10.0 mi Calm Calm - N/A   Clear
1:37 AM 35.6 °F - 33.8 °F 93% 30.11 in 10.0 mi Calm Calm - N/A   Clear
1:57 AM 35.6 °F 32.8 °F 33.8 °F 93% 30.10 in 10.0 mi South 3.5 mph - N/A   Clear
2:17 AM 35.6 °F - 33.8 °F 93% 30.10 in 10.0 mi Calm Calm - N/A   Clear
2:37 AM 37.4 °F - 35.6 °F 93% 30.09 in 10.0 mi Calm Calm - N/A   Clear
2:57 AM 37.4 °F 34.9 °F 35.6 °F 93% 30.08 in 10.0 mi SSE 3.5 mph - N/A   Clear
3:17 AM 39.2 °F 35.9 °F 35.6 °F 87% 30.08 in 10.0 mi SSE 4.6 mph - N/A   Clear
3:37 AM 39.2 °F 37.0 °F 35.6 °F 87% 30.08 in 10.0 mi South 3.5 mph - N/A   Clear
3:57 AM 39.2 °F 35.9 °F 35.6 °F 87% 30.08 in 10.0 mi South 4.6 mph - N/A   Scattered Clouds
4:17 AM 39.2 °F 37.0 °F 33.8 °F 81% 30.08 in 10.0 mi South 3.5 mph - N/A   Scattered Clouds
4:37 AM 39.2 °F 37.0 °F 35.6 °F 87% 30.08 in 10.0 mi South 3.5 mph - N/A   Mostly Cloudy
4:57 AM 39.2 °F 37.0 °F 35.6 °F 87% 30.08 in 10.0 mi South 3.5 mph - N/A   Overcast
5:17 AM 41.0 °F - 35.6 °F 81% 30.08 in 10.0 mi Calm Calm - N/A   Overcast
5:37 AM 41.0 °F - 35.6 °F 81% 30.08 in 10.0 mi Calm Calm - N/A   Overcast
5:57 AM 41.0 °F - 35.6 °F 81% 30.08 in 10.0 mi Calm Calm - N/A   Overcast
6:17 AM 42.8 °F 40.1 °F 37.4 °F 81% 30.08 in 10.0 mi SSE 4.6 mph - N/A   Overcast
6:37 AM 42.8 °F 40.1 °F 37.4 °F 81% 30.07 in 10.0 mi SSE 4.6 mph - N/A   Overcast
6:57 AM 42.8 °F 39.3 °F 37.4 °F 81% 30.07 in 10.0 mi SE 5.8 mph - N/A Rain Light Rain
7:17 AM 42.8 °F 38.6 °F 39.2 °F 87% 30.08 in 10.0 mi SSE 6.9 mph - N/A   Light Drizzle
7:37 AM 42.8 °F 37.5 °F 39.2 °F 87% 30.06 in 10.0 mi SSE 9.2 mph - N/A   Light Drizzle
7:57 AM 44.6 °F 39.2 °F 39.2 °F 81% 30.05 in 10.0 mi SSE 10.4 mph - N/A   Overcast
8:17 AM 44.6 °F 40.2 °F 39.2 °F 81% 30.05 in 10.0 mi SSE 8.1 mph - N/A   Light Drizzle
8:37 AM 44.6 °F 41.4 °F 39.2 °F 81% 30.05 in 10.0 mi SSE 5.8 mph - N/A   Overcast
8:57 AM 44.6 °F 40.2 °F 39.2 °F 81% 30.04 in 10.0 mi SE 8.1 mph - N/A   Light Drizzle
9:17 AM 44.6 °F 40.2 °F 37.4 °F 76% 30.04 in 10.0 mi SE 8.1 mph - N/A   Overcast
9:37 AM 44.6 °F 40.7 °F 37.4 °F 76% 30.04 in 10.0 mi SSE 6.9 mph - N/A   Overcast
9:57 AM 46.4 °F 42.4 °F 37.4 °F 71% 30.02 in 10.0 mi SE 8.1 mph - N/A   Overcast
10:17 AM 46.4 °F 42.4 °F 37.4 °F 71% 30.02 in 10.0 mi SE 8.1 mph - N/A   Overcast
10:37 AM 46.4 °F 41.5 °F 37.4 °F 71% 30.01 in 10.0 mi SE 10.4 mph - N/A   Overcast
10:57 AM 46.4 °F 42.4 °F 37.4 °F 71% 30.00 in 10.0 mi SE 8.1 mph - N/A   Overcast
11:17 AM 46.4 °F 41.5 °F 37.4 °F 71% 29.99 in 10.0 mi ESE 10.4 mph - N/A   Overcast
11:37 AM 48.2 °F - 37.4 °F 66% 29.98 in 10.0 mi SE 11.5 mph 19.6 mph N/A   Overcast
11:57 AM 48.2 °F - 37.4 °F 66% 29.97 in 10.0 mi SE 11.5 mph 19.6 mph N/A   Overcast
12:17 PM 50.0 °F - 39.2 °F 66% 29.95 in 10.0 mi ESE 15.0 mph 20.7 mph N/A   Overcast
12:37 PM 51.8 °F - 39.2 °F 62% 29.96 in 10.0 mi SE 12.7 mph 19.6 mph N/A   Overcast
12:57 PM 51.8 °F - 39.2 °F 62% 29.94 in 10.0 mi SE 12.7 mph 20.7 mph N/A   Overcast
1:17 PM 51.8 °F - 39.2 °F 62% 29.94 in 10.0 mi SE 16.1 mph 23.0 mph N/A   Overcast
1:37 PM 51.8 °F - 39.2 °F 62% 29.93 in 10.0 mi SE 12.7 mph 19.6 mph N/A   Overcast
1:57 PM 51.8 °F - 39.2 °F 62% 29.92 in 10.0 mi SE 12.7 mph 20.7 mph N/A   Overcast
2:17 PM 51.8 °F - 39.2 °F 62% 29.91 in 10.0 mi SE 13.8 mph 20.7 mph N/A Rain Light Rain
2:37 PM 51.8 °F - 39.2 °F 62% 29.90 in 10.0 mi SE 10.4 mph 19.6 mph N/A   Overcast
2:57 PM 53.6 °F - 39.2 °F 58% 29.90 in 10.0 mi SE 15.0 mph - N/A   Overcast
3:17 PM 53.6 °F - 39.2 °F 58% 29.90 in 10.0 mi SE 10.4 mph 17.3 mph N/A   Overcast
3:37 PM 53.6 °F - 39.2 °F 58% 29.89 in 10.0 mi SE 15.0 mph 18.4 mph N/A   Overcast
3:57 PM 53.6 °F - 39.2 °F 58% 29.88 in 10.0 mi SE 12.7 mph 21.9 mph N/A   Overcast
4:17 PM 53.6 °F - 39.2 °F 58% 29.88 in 10.0 mi ESE 12.7 mph 17.3 mph N/A   Overcast
4:37 PM 53.6 °F - 39.2 °F 58% 29.89 in 10.0 mi SE 9.2 mph - N/A   Overcast
4:57 PM 53.6 °F - 41.0 °F 62% 29.87 in 10.0 mi SE 15.0 mph 18.4 mph N/A   Mostly Cloudy
5:17 PM 53.6 °F - 41.0 °F 62% 29.86 in 10.0 mi SE 13.8 mph 21.9 mph N/A   Clear
5:37 PM 55.4 °F - 41.0 °F 58% 29.85 in 10.0 mi SE 15.0 mph 23.0 mph N/A   Clear
5:57 PM 55.4 °F - 41.0 °F 58% 29.86 in 10.0 mi SE 12.7 mph 21.9 mph N/A   Clear
6:17 PM 57.2 °F - 41.0 °F 55% 29.85 in 10.0 mi ESE 16.1 mph - N/A   Clear
6:37 PM 57.2 °F - 41.0 °F 55% 29.85 in 10.0 mi ESE 11.5 mph - N/A   Clear
6:57 PM 55.4 °F - 41.0 °F 58% 29.84 in 10.0 mi ESE 11.5 mph - N/A   Clear
7:17 PM 55.4 °F - 41.0 °F 58% 29.83 in 10.0 mi SE 9.2 mph - N/A   Clear
7:37 PM 53.6 °F - 41.0 °F 62% 29.83 in 10.0 mi ESE 10.4 mph - N/A   Clear
7:57 PM 53.6 °F - 41.0 °F 62% 29.83 in 10.0 mi North - - N/A   Clear
8:17 PM 51.8 °F - 41.0 °F 67% 29.83 in 10.0 mi SE 11.5 mph 18.4 mph N/A   Clear
8:37 PM 51.8 °F - 41.0 °F 67% 29.82 in 10.0 mi ESE 11.5 mph 16.1 mph N/A   Clear
8:57 PM 51.8 °F - 41.0 °F 67% 29.82 in 10.0 mi SE 12.7 mph 18.4 mph N/A   Clear
9:17 PM 51.8 °F - 41.0 °F 67% 29.80 in 10.0 mi SE 13.8 mph - N/A   Clear
9:37 PM 51.8 °F - 41.0 °F 67% 29.81 in 10.0 mi SE 10.4 mph 17.3 mph N/A   Scattered Clouds
9:57 PM 50.0 °F - 41.0 °F 71% 29.80 in 10.0 mi SE 8.1 mph - N/A   Scattered Clouds
10:17 PM 50.0 °F - 41.0 °F 71% 29.79 in 10.0 mi SE 9.2 mph - N/A   Clear
10:37 PM 50.0 °F - 41.0 °F 71% 29.78 in 10.0 mi SE 8.1 mph - N/A   Clear
10:57 PM 50.0 °F - 41.0 °F 71% 29.77 in 10.0 mi SE 12.7 mph 18.4 mph N/A   Clear
11:17 PM 50.0 °F - 41.0 °F 71% 29.78 in 10.0 mi SE 9.2 mph - N/A   Clear
11:37 PM 50.0 °F - 42.8 °F 76% 29.78 in 10.0 mi SSE 5.8 mph - N/A   Scattered Clouds
11:57 PM 51.8 °F - 42.8 °F 71% 29.80 in 10.0 mi Calm Calm - N/A   Scattered Clouds